Wind_Speed
19 13 6 9 23 36 35 28 28 25 24 24 22 23 22 21 19 23 25 25 25 23 21 19 19 18 16 14 13 11 12 11 10 9 8 7 8 9 9 9 6 5 6
19 17 9 3 5 19 19 20 20 20 24 26 26 25 24 24 22 25 25 25 25 24 23 21 21 22 19 18 17 15 14 15 13 13 12 10 10 10 9 9 8 7 6
17 17 16 14 6 8 11 12 21 25 25 27 28 25 23 25 23 24 28 27 27 26 25 24 23 22 20 20 20 18 18 17 16 14 14 13 12 11 8 9 10 9 8
18 17 14 12 12 14 9 13 14 13 27 31 29 29 28 27 24 25 25 26 27 28 27 25 27 27 27 22 23 17 19 17 18 18 16 14 12 11 10 10 11 11 12
21 20 17 16 15 15 14 15 16 19 20 23 29 30 33 33 30 30 29 26 28 28 28 28 30 27 25 23 24 19 20 17 17 12 13 16 16 15 13 14 15 16 15
21 21 20 20 20 20 21 21 21 23 20 21 22 28 30 35 32 33 33 31 29 27 29 30 31 29 28 26 27 25 23 23 20 18 20 20 18 16 16 16 18 19 19
24 24 23 22 22 22 23 24 25 25 25 27 26 24 26 25 31 37 37 36 34 32 29 30 32 31 27 27 28 24 22 24 23 22 22 22 19 18 17 18 19 20 21
28 26 25 24 25 25 26 26 26 26 27 28 28 27 23 23 26 26 39 41 37 34 31 32 33 34 29 32 29 26 26 26 26 24 23 21 20 20 21 21 20 21 24
30 30 29 28 27 27 28 29 29 29 29 29 29 29 27 27 24 25 25 28 30 35 39 41 37 39 35 35 35 31 29 27 28 26 24 23 23 22 24 23 24 24 25
30 28 29 30 32 33 33 34 34 35 35 34 34 33 31 30 29 26 24 24 24 28 24 29 39 43 35 40 32 34 32 30 30 28 26 25 25 24 26 25 24 25 26
34 33 32 33 34 35 36 37 38 39 40 41 40 41 40 36 33 30 29 24 27 25 29 25 28 30 36 36 33 36 37 37 33 31 27 26 26 27 26 25 25 25 26
33 34 33 33 33 34 35 36 37 37 38 40 41 41 42 41 39 35 32 28 27 24 24 26 29 28 34 39 37 36 39 39 34 33 29 29 29 26 24 24 25 24 25
33 34 34 34 36 36 37 37 39 40 39 38 37 39 41 42 38 38 33 31 28 23 25 26 26 29 36 37 38 39 38 43 38 36 32 32 30 26 26 25 25 26 24
35 35 36 37 37 38 38 38 39 41 43 41 37 36 36 38 38 36 35 33 29 29 28 29 24 26 33 37 37 41 36 39 45 40 35 33 31 28 26 26 23 22 22
36 37 38 39 40 40 40 40 41 41 41 39 38 37 36 34 36 35 39 33 32 32 33 30 30 27 33 36 41 35 35 38 39 47 33 34 32 30 28 28 25 22 22
37 38 38 39 40 41 41 41 38 37 39 39 36 36 34 33 33 39 41 36 35 36 35 37 32 31 29 31 37 36 38 40 45 37 35 35 34 31 30 28 26 25 25
40 40 41 42 42 41 41 41 39 38 40 40 39 36 35 33 33 38 42 41 39 40 39 38 38 34 36 34 34 36 44 46 41 37 35 34 34 32 32 31 29 29 30
42 42 43 43 44 43 42 40 41 42 40 39 42 40 36 34 33 36 42 46 44 44 38 40 40 40 38 36 33 29 35 40 34 34 32 33 34 33 34 35 36 38 40
44 44 44 44 43 42 41 41 40 41 42 42 41 40 36 36 33 36 41 47 49 45 43 42 43 42 38 36 39 33 33 33 34 35 36 36 35 37 38 36 38 39 38
44 44 44 44 44 43 43 42 41 40 40 40 38 38 40 38 36 37 40 45 52 48 43 44 39 41 39 35 37 38 36 33 37 35 29 34 38 38 36 36 34 34 31
43 42 43 46 45 42 43 40 40 41 40 41 40 37 36 36 36 38 38 43 50 50 46 43 42 39 38 37 38 33 29 31 38 38 35 31 34 39 37 31 28 28 32
46 45 45 44 45 42 40 40 37 36 37 36 37 39 37 36 36 36 37 40 47 49 48 42 40 37 36 35 34 36 34 31 30 27 32 35 36 29 28 27 27 26 24
45 45 43 44 41 40 38 36 34 33 34 34 32 32 36 36 38 36 36 37 43 48 48 42 41 38 37 34 33 30 29 29 30 32 30 24 29 25 25 23 19 22 27
44 42 42 40 39 36 34 32 31 32 33 33 31 31 32 33 35 35 36 36 41 45 45 43 41 40 36 35 33 29 28 29 31 30 29 32 33 34 25 21 21 21 22
41 40 36 35 33 31 29 29 30 30 30 30 30 29 30 32 32 33 34 34 39 42 40 41 38 38 37 35 34 26 31 30 30 30 30 31 33 34 28 23 22 23 26
32 32 30 29 28 28 27 26 26 25 25 27 28 28 28 27 29 32 33 32 34 36 34 36 35 35 36 36 36 35 29 25 31 32 28 27 28 31 26 24 23 26 29
Wind_Direction
354 359 27 204 219 205 205 218 226 235 242 252 252 254 261 261 261 247 248 251 249 249 251 257 264 267 265 268 272 267 270 280 282 271 273 275 287 300 310 313 327 323 308
346 355 2 47 146 207 214 223 232 243 248 253 257 258 260 265 259 251 247 251 248 245 249 252 256 264 259 265 266 267 266 276 273 280 281 276 276 282 286 293 297 294 285
338 337 345 341 331 249 240 276 251 242 249 261 261 263 264 265 270 252 242 248 245 244 247 249 257 255 257 262 266 264 264 268 263 267 270 271 271 275 278 284 293 294 285
324 323 324 327 328 330 314 287 274 273 257 257 259 262 262 252 255 251 250 249 248 247 249 249 254 256 254 258 259 258 263 257 257 255 265 269 266 267 277 285 290 289 289
312 311 310 311 306 301 293 290 291 306 315 268 263 264 264 260 252 254 251 251 255 253 254 249 249 249 243 251 258 255 263 250 250 264 257 267 269 275 289 295 290 289 289
309 308 304 300 298 301 300 300 300 299 300 297 296 302 272 263 244 251 254 251 248 250 251 247 247 253 253 254 249 250 256 242 243 242 260 261 265 274 279 283 284 286 285
297 298 299 297 296 294 293 294 298 299 299 298 298 295 311 303 262 256 253 254 255 254 250 247 245 249 254 250 247 244 238 237 239 245 252 255 258 264 270 276 279 282 281
293 290 289 288 289 289 290 289 289 289 288 288 293 298 298 292 302 267 260 258 256 257 258 252 250 251 252 244 247 245 243 241 241 242 250 254 253 259 265 269 271 275 280
284 284 285 284 283 284 284 285 286 286 287 289 291 293 293 290 294 291 302 278 271 256 258 253 252 249 245 238 238 243 240 240 241 242 245 249 250 254 260 265 271 280 285
287 285 284 285 287 287 285 284 283 283 284 285 285 286 287 286 286 284 282 274 279 275 288 275 257 252 252 233 239 239 244 242 243 241 242 244 245 251 258 268 279 285 291
288 289 289 289 287 286 286 287 287 287 287 286 285 284 283 281 280 279 273 274 266 277 268 275 265 261 243 241 242 239 242 245 242 244 242 240 241 249 260 272 279 291 298
289 290 289 288 287 289 290 289 288 287 286 286 285 284 283 281 278 277 278 274 271 271 255 261 262 259 251 246 250 246 247 251 237 240 242 240 242 250 261 266 274 284 300
289 290 289 288 287 287 287 287 288 286 285 283 283 282 282 280 276 271 271 272 267 255 249 258 250 257 243 243 246 246 250 256 241 238 236 238 244 251 257 263 273 278 293
289 289 288 287 287 285 285 284 283 284 284 284 283 282 278 279 274 266 257 262 259 248 247 257 233 244 237 241 243 243 253 247 244 241 233 237 242 248 256 263 270 284 290
288 289 288 287 287 287 286 285 284 282 279 278 280 279 280 277 268 258 251 248 252 245 245 244 244 227 236 242 238 242 235 238 244 235 227 235 241 247 253 261 270 277 287
288 289 288 286 287 286 286 284 282 276 276 276 273 271 271 272 264 253 246 238 242 243 242 243 239 231 236 242 234 242 233 236 232 223 225 232 240 249 255 263 271 276 279
289 291 291 291 289 287 286 284 282 277 272 270 270 268 269 267 261 256 246 237 235 241 243 244 243 238 234 238 248 234 225 227 224 227 228 232 241 250 261 269 272 278 285
289 291 292 292 290 286 284 282 282 279 276 271 267 268 266 265 258 257 251 238 233 238 242 241 240 241 232 235 241 242 237 223 222 229 236 243 250 256 264 271 271 277 283
288 289 290 292 289 285 281 278 282 283 276 271 266 265 262 263 261 255 252 243 235 235 238 240 240 241 236 238 236 240 241 230 232 236 242 250 258 261 264 272 275 275 276
288 288 289 289 290 284 284 280 279 285 281 272 270 266 262 257 261 253 252 244 240 237 235 238 241 243 243 242 239 238 243 244 235 244 248 254 259 267 271 278 272 271 268
288 290 290 292 291 285 284 283 282 283 280 273 266 262 261 257 254 255 249 245 242 240 237 237 240 240 240 238 233 234 234 242 240 243 243 252 268 269 275 261 270 270 266
290 292 292 291 291 287 284 284 282 278 276 272 264 259 257 255 255 251 245 244 243 241 238 238 238 236 236 238 236 237 237 240 247 247 250 250 258 259 255 260 263 266 271
289 289 288 291 288 286 284 282 281 279 274 270 264 258 254 250 251 246 240 243 241 244 241 240 239 235 232 234 236 236 240 237 238 241 244 247 242 252 262 256 266 278 279
288 286 287 287 287 285 283 282 280 279 274 266 263 256 253 251 248 242 235 239 240 242 243 241 239 238 235 231 232 236 235 236 236 234 238 239 247 273 285 285 280 279 282
287 286 284 284 284 284 284 284 284 282 271 262 260 258 252 251 246 236 236 240 239 241 243 241 245 239 234 231 228 231 244 237 240 242 245 249 249 260 271 273 272 283 289
289 286 282 281 285 285 284 284 287 283 271 265 257 253 248 248 240 235 237 242 240 241 241 241 245 242 234 229 228 222 229 224 244 244 239 244 252 260 264 268 278 288 291
Height
5866 5859 5855 5854 5856 5859 5866 5871 5875 5878 5879 5882 5883 5884 5884 5885 5886 5885 5886 5889 5892 5895 5896 5898 5900 5901 5900 5900 5899 5899 5899 5898 5898 5898 5898 5897 5897 5896 5896 5895 5893 5892 5892
5866 5862 5859 5859 5862 5863 5867 5870 5872 5874 5877 5878 5878 5879 5879 5880 5882 5882 5881 5883 5886 5889 5890 5892 5894 5896 5896 5895 5896 5896 5896 5896 5895 5895 5895 5895 5894 5894 5894 5893 5892 5891 5890
5868 5865 5862 5860 5861 5864 5866 5867 5869 5870 5871 5874 5873 5873 5874 5875 5875 5875 5875 5877 5880 5883 5885 5887 5888 5889 5890 5890 5890 5891 5891 5891 5892 5892 5892 5892 5891 5891 5890 5890 5889 5888 5888
5867 5865 5864 5863 5862 5861 5862 5864 5864 5864 5865 5866 5867 5866 5867 5867 5868 5869 5870 5872 5874 5877 5879 5881 5883 5884 5883 5884 5883 5884 5884 5885 5887 5887 5887 5887 5887 5887 5887 5886 5886 5885 5885
5863 5862 5862 5860 5860 5859 5859 5860 5861 5860 5861 5859 5860 5862 5862 5861 5861 5862 5864 5865 5869 5871 5873 5875 5875 5876 5878 5879 5878 5878 5879 5879 5881 5882 5882 5882 5882 5882 5882 5881 5881 5882 5881
5860 5858 5857 5857 5857 5856 5855 5853 5854 5854 5854 5855 5856 5855 5853 5851 5853 5855 5857 5859 5860 5863 5866 5868 5869 5871 5872 5873 5873 5873 5873 5874 5875 5876 5877 5877 5878 5878 5877 5877 5876 5876 5876
5857 5855 5853 5852 5851 5851 5850 5850 5848 5848 5848 5848 5849 5849 5846 5846 5848 5849 5850 5851 5853 5856 5858 5860 5862 5863 5865 5866 5867 5867 5867 5869 5870 5871 5871 5871 5873 5873 5872 5872 5872 5871 5870
5850 5850 5848 5847 5846 5845 5844 5844 5843 5843 5843 5841 5841 5840 5841 5841 5841 5842 5842 5843 5845 5846 5850 5852 5854 5856 5856 5858 5860 5860 5861 5863 5864 5864 5865 5866 5867 5867 5867 5867 5866 5865 5864
5844 5842 5841 5840 5839 5838 5837 5837 5836 5834 5833 5833 5832 5832 5832 5832 5834 5833 5833 5834 5834 5836 5839 5841 5843 5845 5848 5848 5849 5851 5852 5854 5855 5856 5858 5859 5860 5861 5861 5861 5860 5860 5859
5836 5836 5834 5832 5830 5829 5828 5827 5826 5825 5825 5824 5824 5823 5823 5824 5826 5827 5827 5829 5829 5827 5828 5829 5830 5831 5834 5837 5840 5843 5845 5846 5847 5848 5850 5852 5853 5854 5854 5853 5854 5853 5852
5827 5825 5824 5823 5821 5820 5818 5817 5816 5815 5814 5814 5814 5812 5813 5815 5816 5818 5818 5819 5819 5818 5818 5818 5818 5819 5822 5824 5828 5833 5836 5835 5838 5840 5843 5845 5846 5846 5847 5847 5846 5846 5845
5818 5816 5814 5814 5813 5811 5808 5807 5806 5804 5804 5802 5802 5800 5799 5800 5803 5805 5806 5806 5806 5808 5807 5806 5807 5808 5812 5815 5817 5822 5824 5826 5829 5832 5835 5837 5838 5839 5840 5840 5840 5839 5837
5810 5808 5806 5805 5803 5801 5800 5798 5795 5793 5792 5792 5791 5788 5787 5787 5790 5792 5794 5795 5796 5797 5797 5796 5797 5797 5800 5804 5807 5810 5813 5815 5819 5823 5825 5828 5830 5832 5832 5833 5833 5832 5829
5801 5799 5797 5795 5793 5792 5790 5787 5785 5782 5780 5779 5778 5777 5776 5774 5776 5778 5781 5782 5785 5785 5785 5786 5785 5786 5790 5793 5796 5799 5801 5804 5807 5812 5815 5818 5821 5823 5824 5825 5825 5825 5823
5791 5788 5786 5784 5782 5780 5777 5775 5773 5771 5768 5768 5766 5766 5765 5764 5762 5764 5765 5769 5772 5773 5774 5775 5777 5775 5778 5781 5784 5786 5787 5792 5795 5800 5804 5808 5811 5814 5815 5817 5817 5815 5815
5780 5778 5775 5773 5770 5767 5764 5763 5761 5760 5757 5756 5755 5754 5754 5753 5752 5750 5752 5755 5758 5760 5761 5764 5765 5766 5768 5771 5774 5776 5778 5783 5785 5788 5793 5797 5802 5805 5806 5807 5808 5808 5808
5767 5765 5762 5760 5757 5755 5752 5749 5748 5747 5745 5744 5742 5742 5742 5743 5741 5740 5739 5743 5745 5747 5749 5752 5754 5757 5758 5761 5763 5765 5769 5773 5777 5781 5784 5788 5793 5795 5798 5799 5799 5800 5800
5755 5752 5749 5746 5743 5741 5739 5736 5734 5733 5732 5731 5729 5730 5730 5730 5729 5728 5727 5730 5733 5734 5739 5741 5743 5747 5747 5749 5752 5756 5759 5764 5769 5773 5776 5780 5784 5787 5789 5790 5790 5790 5790
5742 5738 5735 5733 5730 5727 5725 5723 5721 5718 5716 5716 5716 5716 5718 5717 5717 5717 5716 5717 5720 5723 5726 5729 5732 5736 5739 5741 5743 5747 5753 5757 5761 5765 5768 5772 5775 5777 5778 5779 5779 5778 5778
5727 5724 5721 5718 5715 5712 5710 5708 5707 5704 5701 5701 5701 5701 5701 5704 5704 5705 5704 5705 5708 5713 5715 5718 5722 5725 5730 5732 5735 5739 5745 5749 5753 5756 5759 5762 5765 5766 5768 5768 5767 5767 5767
5714 5710 5707 5704 5700 5697 5695 5693 5691 5689 5687 5686 5686 5686 5687 5689 5691 5690 5693 5693 5696 5701 5705 5708 5712 5716 5720 5724 5727 5729 5734 5738 5742 5747 5750 5753 5756 5756 5756 5757 5758 5758 5758
5699 5696 5692 5689 5685 5682 5680 5678 5676 5674 5672 5672 5672 5672 5674 5676 5677 5678 5680 5682 5684 5689 5695 5699 5702 5707 5711 5714 5718 5723 5725 5729 5734 5738 5741 5743 5746 5747 5747 5748 5748 5749 5750
5684 5681 5678 5675 5671 5668 5666 5664 5663 5661 5660 5659 5659 5659 5660 5663 5664 5666 5669 5671 5674 5678 5685 5690 5693 5698 5703 5706 5710 5714 5717 5721 5725 5729 5733 5735 5736 5738 5738 5739 5740 5741 5742
5670 5667 5665 5661 5658 5656 5654 5652 5651 5649 5648 5647 5648 5648 5649 5651 5652 5655 5659 5661 5664 5667 5674 5680 5684 5689 5694 5698 5701 5705 5708 5714 5718 5720 5723 5727 5728 5727 5728 5732 5733 5734 5734
5657 5654 5651 5649 5647 5644 5643 5641 5640 5638 5636 5635 5636 5637 5638 5640 5641 5645 5649 5652 5655 5659 5664 5671 5676 5681 5686 5689 5693 5699 5702 5706 5709 5712 5715 5719 5720 5721 5723 5724 5725 5726 5726
5644 5641 5639 5638 5636 5635 5634 5632 5630 5628 5626 5625 5626 5627 5629 5631 5633 5636 5640 5643 5648 5651 5656 5661 5667 5673 5678 5681 5685 5690 5690 5691 5700 5704 5709 5707 5710 5714 5715 5716 5717 5716 5716